Location: Newark
(33.6439°N, 114.9881°W)
Time: 04:53:41
(UTC+00:00)

A-11 Canister half - Pass Details

Date: 30 August 2019
Orbit: 1527 x 1682 km, 47.3° (Epoch: 16 September)

Event Time Altitude Azimuth Distance (km) Brightness Sun altitude
Rises 15:33:47 0° 210° (SSW) 4,731 11.4 28.4°
Reaches altitude 10° 15:36:55 10° 205° (SSW) 3,768 11.0 29.1°
Maximum altitude 15:46:04 51° 133° (SE) 1,953 10.8 30.9°
Drops below altitude 10° 15:55:32 10° 61° (ENE) 3,898 11.9 32.9°
Sets 15:58:49 0° 57° (ENE) 4,904 12.2 33.5°
